Imperial, NE

8:48 AM MDT on March 23, 2017 (GMT -0600)
Imperial Municipal

Weather History for KIML - August, 2013

Change the Weather History Date:

Thursday, August 29, 2013

  Actual Average Record
Temperature  
Mean Temperature 80 °F 71 °F  
Max Temperature 102 °F 85 °F 107 °F (1899)
Min Temperature 58 °F 57 °F 42 °F (1931)
Degree Days  
Heating Degree Days 0 1  
Month to date heating degree days 0 3  
Since 1 June heating degree days 32 39  
Cooling Degree Days 15 7  
Month to date cooling degree days 316 269  
Year to date cooling degree days 937 853  
Since 1 June cooling degree days 869 809  
Growing Degree Days 30 (Base 50)    
Moisture  
Dew Point 53 °F    
Average Humidity 49    
Maximum Humidity 84    
Minimum Humidity 14    
Precipitation  
Precipitation 0.00 in 0.09 in 2.95 in (1999)
Sea Level Pressure  
Sea Level Pressure 29.91 in    
Wind  
Wind Speed 3 mph (North)    
Max Wind Speed 9 mph    
Max Gust Speed 15 mph    
Visibility 10 miles    
Events      
T = Trace of Precipitation, MM = Missing Value Source: NWS Daily Summary

Daily Weather History Graph

Daily Weather History Graph

Search for Another Location

Airport or City:

Trip Planner

Search our weather history database for the weather conditions in past years. The results will help you decide how hot, cold, wet, or windy it might be!

Date:

Astronomy

Aug. 29, 2013 Rise Set
Actual Time 6:11 AM MDT 7:22 PM MDT
Civil Twilight 5:42 AM MDT 7:50 PM MDT
Nautical Twilight 5:09 AM MDT 8:24 PM MDT
Astronomical Twilight 4:33 AM MDT 8:59 PM MDT
Moon 12:03 AM MDT (8/29) 2:53 PM MDT (8/29)
Length of Visible Light 14h 07m
Length of Day
13h 11m
Last Quarter, 37% of the Moon is Illuminated
Aug 29
Last Quarter
Sep 5
New
Sep 12
First Quarter
Sep 19
Full
Sep 26
Last Quarter

Hourly Weather History & Observations

Time (MDT) Temp. Heat Index Dew Point Humidity Pressure Visibility Wind Dir Wind Speed Gust Speed Precip Events Conditions
12:53 AM 69.1 °F - 57.9 °F 68% 29.93 in 10.0 mi Calm Calm - N/A   Clear
1:53 AM 69.1 °F - 59.0 °F 70% 29.91 in 10.0 mi SE 5.8 mph - N/A   Clear
2:53 AM 64.9 °F - 57.9 °F 78% 29.91 in 10.0 mi Calm Calm - N/A   Clear
3:53 AM 63.0 °F - 57.0 °F 81% 29.91 in 10.0 mi Calm Calm - N/A   Clear
4:53 AM 61.0 °F - 55.9 °F 83% 29.92 in 10.0 mi Calm Calm - N/A   Clear
5:53 AM 60.1 °F - 55.9 °F 86% 29.93 in 10.0 mi Calm Calm - N/A   Clear
6:53 AM 63.0 °F - 57.9 °F 84% 29.94 in 10.0 mi Calm Calm - N/A   Clear
7:53 AM 71.1 °F - 57.0 °F 61% 29.95 in 10.0 mi Calm Calm - N/A   Clear
8:53 AM 75.9 °F - 57.9 °F 54% 29.96 in 10.0 mi Calm Calm - N/A   Clear
9:53 AM 82.0 °F 82.0 °F 57.9 °F 44% 29.95 in 10.0 mi Calm Calm - N/A   Clear
10:53 AM 90.0 °F 89.1 °F 59.0 °F 35% 29.93 in 10.0 mi Calm Calm - N/A   Clear
11:53 AM 93.9 °F 92.2 °F 55.9 °F 28% 29.91 in 10.0 mi Variable 4.6 mph - N/A   Clear
12:53 PM 99.0 °F - 51.1 °F 20% 29.90 in 10.0 mi Calm Calm - N/A   Clear
1:53 PM 99.0 °F - 46.0 °F 16% 29.89 in 10.0 mi NNW 3.5 mph - N/A   Clear
2:53 PM 100.9 °F - 42.1 °F 13% 29.88 in 10.0 mi West 8.1 mph - N/A   Clear
3:53 PM 100.0 °F - 44.1 °F 15% 29.88 in 10.0 mi WSW 5.8 mph - N/A   Clear
4:53 PM 100.9 °F - 45.0 °F 15% 29.88 in 10.0 mi Variable 6.9 mph - N/A   Clear
5:53 PM 100.0 °F - 44.1 °F 15% 29.88 in 10.0 mi ENE 6.9 mph - N/A   Clear
6:53 PM 93.0 °F - 50.0 °F 23% 29.89 in 10.0 mi East 4.6 mph - N/A   Clear
7:53 PM 84.0 °F - 48.0 °F 28% 29.90 in 10.0 mi East 5.8 mph - N/A   Clear
8:53 PM 78.1 °F - 51.1 °F 39% 29.91 in 10.0 mi Calm Calm - N/A   Clear
9:53 PM 75.0 °F - 50.0 °F 41% 29.91 in 10.0 mi Variable 3.5 mph - N/A   Clear
10:53 PM 73.0 °F - 53.1 °F 49% 29.91 in 10.0 mi North 4.6 mph - N/A   Clear
11:53 PM 71.1 °F - 53.1 °F 53% 29.91 in 10.0 mi NW 3.5 mph - N/A   Clear